This is the latest recevied weather packets stored in our database for station/object WI0K. If no packets are shown the sender has not sent any weather packets the latest 10 day(s).
| Time | Temp. | Humidity | Pressure | Rain* | Wind** | Luminosity | Snow |
|---|---|---|---|---|---|---|---|
| 1787941787 | 32.22° C | 25% | 1020.7 hPa | 0 mm | - | 999 W/m² | - |
| 1787941486 | 32.22° C | 28% | 1020.8 hPa | 0 mm | - | 849 W/m² | - |
| 1787941186 | 32.22° C | 26% | 1020.8 hPa | 0 mm | - | 441 W/m² | - |
| 1787940885 | 32.78° C | 25% | 1020.8 hPa | 0 mm | - | 499 W/m² | - |
| 1787940584 | 32.22° C | 27% | 1020.9 hPa | 0 mm | - | 525 W/m² | - |
| 1787940283 | 32.22° C | 29% | 833.6 hPa | 0 mm | - | 776 W/m² | - |
| 1787939982 | 31.67° C | 29% | 1021 hPa | 0 mm | - | 779 W/m² | - |
| 1787939682 | 31.67° C | 28% | 1021.1 hPa | 0 mm | - | 786 W/m² | - |
| 1787939381 | 32.22° C | 27% | 1021.2 hPa | 0 mm | - | 741 W/m² | - |
| 1787939080 | 32.22° C | 27% | 1021.2 hPa | 0 mm | - | 938 W/m² | - |
| 1787938779 | 31.67° C | 25% | 1021.2 hPa | 0 mm | - | 905 W/m² | - |
| 1787938478 | 31.67° C | 29% | 1021.4 hPa | 0 mm | - | 892 W/m² | - |
| 1787938178 | 31.11° C | 28% | 1021.4 hPa | 0 mm | - | 881 W/m² | - |
| 1787937878 | 31.11° C | 30% | 1021.5 hPa | 0 mm | - | 873 W/m² | - |
| 1787937577 | 31.11° C | 29% | 1021.5 hPa | 0 mm | - | 850 W/m² | - |
| 1787937276 | 30.56° C | 31% | 1021.5 hPa | 0 mm | - | 854 W/m² | - |
| 1787936975 | 30.56° C | 32% | 1021.6 hPa | 0 mm | - | 842 W/m² | - |
| 1787936675 | 30.56° C | 32% | 1021.6 hPa | 0 mm | - | 832 W/m² | - |
| 1787936379 | 30° C | 31% | 1021.6 hPa | 0 mm | - | 823 W/m² | - |
| 1787936073 | 30° C | 34% | 1021.7 hPa | 0 mm | - | 815 W/m² | - |
| 1787935773 | 30° C | 36% | 1021.7 hPa | 0 mm | - | 802 W/m² | - |
| 1787935472 | 29.44° C | 34% | 1021.7 hPa | 0 mm | - | 788 W/m² | - |
| 1787935171 | 28.89° C | 32% | 1021.7 hPa | 0 mm | - | 775 W/m² | - |
| 1787934871 | 28.89° C | 32% | 1021.7 hPa | 0 mm | - | 761 W/m² | - |
| 1787934570 | 28.33° C | 38% | 1021.7 hPa | 0 mm | - | 754 W/m² | - |
* Rain latest hour (hover to see other rain measurements)
** Current wind speed in m/s (hover to see current wind gust speed)